Midland, TX

3:23 PM CDT on March 29, 2017 (GMT -0500)
Midland International

Weather History for KMAF - July, 2013

Change the Weather History Date:

Saturday, July 13, 2013

  Actual Average Record
Temperature  
Mean Temperature 86 °F 82 °F  
Max Temperature 99 °F 95 °F 107 °F (1933)
Min Temperature 72 °F 70 °F 49 °F (1936)
Cooling Degree Days 21 17  
Month to date cooling degree days 226 221  
Year to date cooling degree days 1278 1071  
Since 1 June cooling degree days 790 682  
Growing Degree Days 36 (Base 50)    
Moisture  
Dew Point 50 °F    
Average Humidity 32    
Maximum Humidity 49    
Minimum Humidity 15    
Precipitation  
Precipitation 0.00 in 0.06 in 0.92 in (1939)
Month to date precipitation 0.12 0.77  
Year to date precipitation 2.53 6.83  
Sea Level Pressure  
Sea Level Pressure 29.86 in    
Wind  
Wind Speed 10 mph (SSE)    
Max Wind Speed 21 mph    
Max Gust Speed 28 mph    
Visibility 10 miles    
Events      
T = Trace of Precipitation, MM = Missing Value Source: NWS Daily Summary

Daily Weather History Graph

Daily Weather History Graph

Search for Another Location

Airport or City:

Trip Planner

Search our weather history database for the weather conditions in past years. The results will help you decide how hot, cold, wet, or windy it might be!

Date:

Astronomy

Jul. 13, 2013 Rise Set
Actual Time 6:52 AM CDT 8:56 PM CDT
Civil Twilight 6:24 AM CDT 9:24 PM CDT
Nautical Twilight 5:51 AM CDT 9:57 PM CDT
Astronomical Twilight 5:15 AM CDT 10:33 PM CDT
Moon 11:48 AM CDT (7/13) No Moon Set
Length of Visible Light 14h 59m
Length of Day
14h 03m
Waxing Crescent, 26% of the Moon is Illuminated
Jul 13
Waxing Crescent
Jul 15
First Quarter
Jul 22
Full
Jul 29
Last Quarter
Aug 6
New

Hourly Weather History & Observations

Time (CDT) Temp. Heat Index Dew Point Humidity Pressure Visibility Wind Dir Wind Speed Gust Speed Precip Events Conditions
12:53 AM 84.0 °F 82.5 °F 53.1 °F 34% 29.86 in 10.0 mi South 10.4 mph - N/A   Clear
1:53 AM 81.0 °F - 52.0 °F 36% 29.87 in 10.0 mi South 8.1 mph - N/A   Clear
2:53 AM 81.0 °F 80.5 °F 54.0 °F 39% 29.87 in 10.0 mi South 4.6 mph - N/A   Clear
3:53 AM 79.0 °F - 54.0 °F 42% 29.87 in 10.0 mi South 6.9 mph - N/A   Clear
4:53 AM 75.0 °F - 53.1 °F 46% 29.87 in 10.0 mi SSE 4.6 mph - N/A   Clear
5:53 AM 73.0 °F - 53.1 °F 49% 29.88 in 10.0 mi Calm Calm - N/A   Clear
6:53 AM 73.9 °F - 53.1 °F 48% 29.89 in 10.0 mi SSE 4.6 mph - N/A   Clear
7:53 AM 75.9 °F - 54.0 °F 46% 29.91 in 10.0 mi SE 5.8 mph - N/A   Clear
8:53 AM 80.1 °F 80.6 °F 57.9 °F 47% 29.93 in 10.0 mi SSE 9.2 mph - N/A   Clear
9:53 AM 84.9 °F 84.2 °F 57.9 °F 40% 29.93 in 10.0 mi South 15.0 mph - N/A   Clear
10:53 AM 88.0 °F 86.9 °F 57.9 °F 36% 29.92 in 10.0 mi South 10.4 mph 19.6 mph N/A   Clear
11:53 AM 91.0 °F 89.7 °F 57.0 °F 32% 29.92 in 10.0 mi SSE 16.1 mph 20.7 mph N/A   Clear
12:53 PM 93.9 °F - 52.0 °F 24% 29.90 in 10.0 mi SSE 13.8 mph 24.2 mph N/A   Clear
1:53 PM 96.1 °F - 51.1 °F 22% 29.88 in 10.0 mi SE 16.1 mph 24.2 mph N/A   Clear
2:53 PM 98.1 °F - 46.0 °F 17% 29.85 in 10.0 mi SE 9.2 mph 23.0 mph N/A   Partly Cloudy
3:53 PM 98.1 °F - 45.0 °F 16% 29.84 in 10.0 mi SE 17.3 mph 21.9 mph N/A   Clear
4:53 PM 99.0 °F - 42.1 °F 14% 29.83 in 10.0 mi South 12.7 mph 24.2 mph N/A   Clear
5:53 PM 98.1 °F - 44.1 °F 16% 29.82 in 10.0 mi SSE 13.8 mph 21.9 mph N/A   Clear
6:53 PM 97.0 °F - 46.0 °F 18% 29.80 in 10.0 mi SSE 15.0 mph - N/A   Clear
7:53 PM 96.1 °F - 44.1 °F 17% 29.80 in 10.0 mi SE 15.0 mph - N/A   Clear
8:53 PM 93.0 °F - 44.1 °F 18% 29.80 in 10.0 mi SSE 11.5 mph - N/A   Clear
9:53 PM 88.0 °F - 44.1 °F 22% 29.81 in 10.0 mi SE 5.8 mph - N/A   Clear
10:53 PM 84.9 °F - 44.1 °F 24% 29.83 in 10.0 mi ESE 6.9 mph - N/A   Clear
11:53 PM 84.0 °F - 44.1 °F 25% 29.84 in 10.0 mi SE 9.2 mph - N/A   Clear